Regional Weather Roundup
Issued by NWS

Home | Current Version | Previous Version | Graphics & Text | Print | Product List | Glossary On
Versions: 1 2 3 4 5 6 7 8 9 10 11 12 13 14 15 16 17 18 19 20 21 22 23 24 25 26 27 28 29 30 31 32 33 34 35 36 37 38 39 40 41 42 43 44 45 46 47 48 49 50
000
ASUS44 KMEG 300700
RWRTN
TENNESSEE HOURLY STATE WEATHER ROUNDUP
NATIONAL WEATHER SERVICE MEMPHIS TN
200 AM CDT SAT MAY 30 2015

TNZ002-004-019-021-049-052-054-088>092-300800-
WEST TENNESSEE

CITY           SKY/WX    TMP DP  RH WIND       PRES   REMARKS
MEMPHIS INTL   MOCLDY    75  68  78 S12       29.99F
NWS MEMPHIS      N/A     73 N/A N/A MISG        N/A
JACKSON        MOCLDY    74  67  78 S9        30.03R
DYERSBURG      CLOUDY    73  57  56 S8        30.01S
PARIS          CLEAR     70  66  88 S10       30.03F
LEXINGTON      CLEAR     72  66  83 CALM      30.04S
$$

TNZ008-025-027-028-033-062-065-066-300800-
NORTH MIDDLE TENNESSEE

CITY           SKY/WX    TMP DP  RH WIND       PRES   REMARKS
NASHVILLE      PTCLDY    71  65  81 S6        30.08S
CLARKSVILLE    CLEAR     69  66  90 SE7       30.05S
COOKEVILLE     CLEAR     64  64 100 CALM      30.12S
CROSSVILLE     CLOUDY    67  63  87 CALM      30.17F
$$

TNZ061-075-076-078-094-096-097-300800-
SOUTH MIDDLE TENNESSEE

CITY           SKY/WX    TMP DP  RH WIND       PRES   REMARKS
FAYETTEVILLE   CLEAR    N/A N/A N/A MISG      30.11S
TULLAHOMA      CLEAR     66  64  94 CALM      30.13S
WINCHESTER     PTCLDY    70  66  88 SE5       30.12S
MCMINNVILLE    CLEAR     64  64 100 CALM      30.12F
COLUMBIA       CLEAR     68  66  94 CALM      30.07S
SHELBYVILLE    CLEAR     70  66  88 SE6       30.11S
$$

TNZ017-018-042-046-047-300800-
NORTHEAST TENNESSEE

CITY           SKY/WX    TMP DP  RH WIND       PRES   REMARKS
TRI CITIES     PTCLDY    61  61 100 CALM      30.19S
ELIZABETHTON   SUNNY     61  61 100 CALM      30.20S
$$

TNZ012-013-036-069-073-074-300800-
CENTRAL EAST TENNESSEE

CITY           SKY/WX    TMP DP  RH WIND       PRES   REMARKS
KNOXVILLE      PTCLDY    66  64  93 NE3       30.13F FOG
OAK RIDGE      CLOUDY    71  65  81 CALM      30.15F
GATLINBURG     CLOUDY    63  63 100 CALM      30.15F VSB 1/4
$$

TNZ083-085-099-300800-
SOUTHEAST TENNESSEE

CITY           SKY/WX    TMP DP  RH WIND       PRES   REMARKS
CHATTANOOGA    CLOUDY    71  68  90 CALM      30.13S
$$

SKY/WX REPORTED AS FAIR MEANS FEW OR NO CLOUDS BELOW
12 THOUSAND FEET.




USA.gov is the U.S. government's official web portal to all federal, state and local government web resources and services.